カタログに戻る

ATLAS 5 CENTAUR DEB

LostHEO
NORAD 46871·DEBRIS·🇺🇸 United States

打ち上げ Oct 17, 2018 から Cape Canaveral Space Force Station

Loading…

次のパス (今後24時間)

TLE

古いSource: Space-Track

元期: Feb 8, 2024, 11:55 UTC

1 46871U 18079EC  24039.49658262 -.00000073  00000-0  00000+0 0  9991
2 46871  15.5596  85.2436 5848600 195.2303 134.3480  1.75112433 20687

AllMySatでATLAS 5 CENTAUR DEBをリアルタイム追跡

Download on the App Store